Location: Unspecified
(0.0000°N, 0.0000°E)
Time: 13:42:59
(UTC+00:00)

A-11 Canister half - Pass Details

Date: 19 November 2019
Orbit: 1526 x 1683 km, 47.3° (Epoch: 08 December)

Event Time Altitude Azimuth Distance (km) Brightness Sun altitude
Rises 08:11:09 0° 214° (SW) 4,905 11.6 34.1°
Reaches altitude 10° 08:14:19 10° 212° (SSW) 3,928 11.2 34.8°
Maximum altitude 08:24:24 70° 129° (SE) 1,766 10.5 37.1°
Drops below altitude 10° 08:34:26 10° 47° (NE) 3,919 11.5 39.4°
Sets 08:37:35 0° 45° (NE) 4,894 11.8 40.1°
